Weather History for Renton, WA

Change the Weather History Date:

Tuesday, November 19, 2013

  Actual Average Record
Temperature  
Mean Temperature 48 °F -  
Max Temperature 54 °F 49 °F 60 °F (2008)
Min Temperature 39 °F 39 °F 28 °F (2000)
Degree Days  
Heating Degree Days 17    
Moisture  
Dew Point 29 °F    
Average Humidity 51    
Maximum Humidity 58    
Minimum Humidity 41    
Precipitation  
Precipitation 0.06 in - - ()
Sea Level Pressure  
Sea Level Pressure 29.82 in    
Wind  
Wind Speed 7 mph (NNW)    
Max Wind Speed 15 mph    
Max Gust Speed 20 mph    
Visibility 9 miles    
Events Rain    
Averages and records for this station are not official NWS values.
T = Trace of Precipitation, MM = Missing Value Source: NWS Daily Summary

Daily Weather History Graph

Daily Weather History Graph

Search for Another Location

Airport:

Trip Planner

Search our weather history database for the weather conditions in past years. The results will help you decide how hot, cold, wet, or windy it might be!

Date:

Astronomy

Nov. 19, 2013 Rise Set
Actual Time 7:20 AM PST 4:28 PM PST
Civil Twilight 6:46 AM PST 5:02 PM PST
Nautical Twilight 6:08 AM PST 5:39 PM PST
Astronomical Twilight 5:31 AM PST 6:16 PM PST
Moon 6:22 PM PST (11/19) 9:04 AM PST (11/19)
Length of Visible Light 10h 16m
Length of Day
9h 08m
Waning Gibbous, 95% of the Moon is Illuminated
Nov 19
Waning Gibbous
Nov 25
Last Quarter
Dec 2
New
Dec 9
First Quarter
Dec 17
Full

Hourly Weather History & Observations

Time (PST) Temp. Windchill Dew Point Humidity Pressure Visibility Wind Dir Wind Speed Gust Speed Precip Events Conditions
12:46 AM 53.6 °F - 30.2 °F 41% 29.56 in 9.0 mi SSE 9.2 mph - 0.00 in Rain Light Rain
12:53 AM 54.0 °F - 30.9 °F 41% 29.58 in 10.0 mi SSE 10.4 mph 18.4 mph 0.00 in Rain Light Rain
1:53 AM 54.0 °F - 30.9 °F 41% 29.60 in 10.0 mi South 10.4 mph - 0.00 in   Overcast
2:53 AM 53.1 °F - 30.9 °F 43% 29.62 in 4.0 mi South 9.2 mph - 0.00 in Rain Light Rain
3:09 AM 53.6 °F - 30.2 °F 41% 29.60 in 6.0 mi South 11.5 mph - 0.00 in   Haze
3:53 AM 53.1 °F - 30.9 °F 43% 29.64 in 10.0 mi WSW 5.8 mph - 0.00 in   Overcast
4:53 AM 46.9 °F - 30.9 °F 54% 29.70 in 10.0 mi NW 15.0 mph 19.6 mph N/A   Overcast
5:21 AM 46.4 °F 44.3 °F 30.2 °F 53% 29.70 in 6.0 mi Variable 4.6 mph - 0.00 in Rain Light Rain
5:53 AM 46.0 °F 43.9 °F 30.0 °F 54% 29.73 in 6.0 mi North 4.6 mph - 0.00 in Rain Light Rain
6:53 AM 46.0 °F - 30.0 °F 54% 29.77 in 10.0 mi Calm Calm - 0.00 in   Overcast
7:53 AM 46.0 °F - 30.0 °F 54% 29.79 in 10.0 mi Calm Calm - 0.01 in Rain Light Rain
8:53 AM 45.0 °F - 30.0 °F 56% 29.82 in 10.0 mi Calm Calm - 0.01 in   Overcast
9:53 AM 45.0 °F 42.6 °F 30.0 °F 56% 29.84 in 10.0 mi Variable 4.6 mph - 0.01 in Rain Light Rain
10:53 AM 45.0 °F - 30.0 °F 56% 29.86 in 10.0 mi Calm Calm - 0.00 in Rain Light Rain
11:53 AM 44.1 °F 42.5 °F 30.0 °F 58% 29.87 in 7.0 mi Variable 3.5 mph - 0.01 in Rain Light Rain
12:11 PM 44.6 °F 43.1 °F 28.4 °F 53% 29.86 in 5.0 mi North 3.5 mph - 0.00 in Rain Light Rain
12:22 PM 44.6 °F 42.2 °F 28.4 °F 53% 29.86 in 5.0 mi Variable 4.6 mph - 0.01 in Rain Light Rain
12:53 PM 43.0 °F 40.3 °F 28.9 °F 58% 29.88 in 6.0 mi NNW 4.6 mph - 0.02 in Rain Light Rain
1:53 PM 44.1 °F 42.5 °F 30.0 °F 58% 29.88 in 10.0 mi NW 3.5 mph - 0.00 in   Overcast
2:53 PM 45.0 °F 42.6 °F 30.0 °F 56% 29.88 in 10.0 mi NW 4.6 mph - N/A   Overcast
3:53 PM 45.0 °F 43.5 °F 28.9 °F 53% 29.89 in 10.0 mi North 3.5 mph - N/A   Overcast
4:53 PM 45.0 °F 41.8 °F 24.1 °F 44% 29.90 in 10.0 mi North 5.8 mph - N/A   Overcast
5:53 PM 43.0 °F 39.5 °F 27.0 °F 53% 29.92 in 10.0 mi North 5.8 mph - N/A   Overcast
6:53 PM 43.0 °F - 26.1 °F 51% 29.94 in 10.0 mi Calm Calm - N/A   Overcast
7:53 PM 42.1 °F 40.2 °F 25.0 °F 51% 29.95 in 10.0 mi North 3.5 mph - N/A   Overcast
8:53 PM 42.1 °F 39.2 °F 25.0 °F 51% 29.98 in 10.0 mi Variable 4.6 mph - N/A   Overcast
9:53 PM 42.1 °F 39.2 °F 24.1 °F 49% 30.01 in 10.0 mi Variable 4.6 mph - N/A   Overcast
10:53 PM 42.1 °F 36.6 °F 24.1 °F 49% 30.05 in 10.0 mi North 9.2 mph 17.3 mph N/A   Overcast
11:53 PM 39.9 °F 35.8 °F 21.9 °F 49% 30.09 in 10.0 mi North 5.8 mph - N/A   Mostly Cloudy